Regional Weather Roundup
Issued by NWS Little Rock, AR

Home | Current Version | Previous Version | Graphics & Text | Print | Product List | Glossary Off
Versions: 1 2 3 4 5 6 7 8 9 10 11 12 13 14 15 16 17 18 19 20 21 22 23 24 25 26 27 28 29 30 31 32 33 34 35 36 37 38 39 40 41 42 43 44 45 46 47 48 49 50

000
ASUS44 KLZK 011605
RWRLZK

WEATHER ROUNDUP FOR ARKANSAS
NATIONAL WEATHER SERVICE LITTLE ROCK AR
1000 AM CST SUN FEB 01 2015

NOTE: "FAIR" INDICATES FEW OR NO CLOUDS BELOW 12,000 FEET WITH NO
SIGNIFICANT WEATHER AND/OR OBSTRUCTIONS TO VISIBILITY.

ARZ001-003-010-029-011700-
NORTHWEST ARKANSAS

CITY           SKY/WX    TMP DP  RH WIND       PRES   REMARKS
FAYETTEVILLE   CLOUDY    44  43  96 W17G25    29.79R
FORT SMITH     CLOUDY    47  44  90 W14       29.84R
HARRISON       CLOUDY    48  45  89 W14       29.74S
BENTONVILLE    CLOUDY    45  39  81 W15G28    29.79R
ROGERS         LGT RAIN  43  42  97 W18G26    29.78R
SILOAM SPGS    CLOUDY    43  37  81 W18G29    29.82R
HIGHFILL       LGT RAIN  44  42  93 W21G28    29.77R FOG
SPRINGDALE     LGT RAIN  43  43 100 W12G23    29.80R VSB 1
$$

ARZ004-005-016-011700-
NORTH CENTRAL ARKANSAS

CITY           SKY/WX    TMP DP  RH WIND       PRES   REMARKS
BATESVILLE     CLOUDY    48  46  93 CALM      29.78S
FLIPPIN        CLOUDY    48  43  81 SW7       29.75S
MTN HOME       CLOUDY    47  46  97 SW6       29.74S
$$

ARZ040-041-011700-
WEST CENTRAL ARKANSAS

CITY           SKY/WX    TMP DP  RH WIND       PRES   REMARKS
MENA           CLOUDY    54  52  94 W7        29.83S
MOUNT IDA      RAIN      52  50  93 CALM      29.79S FOG
$$

ARZ009-017-025-026-028-011700-
NORTHEAST ARKANSAS

CITY           SKY/WX    TMP DP  RH WIND       PRES   REMARKS
CORNING        FAIR      46  46 100 SW10      29.77F
JONESBORO      LGT RAIN  50  50 100 SW21G28   29.78F
NEWPORT        LGT RAIN  51  51 100 S14       29.78F FOG
WALNUT RIDGE   CLOUDY    46  45  93 S10       29.77F
BLYTHEVILLE    LGT RAIN  52  51  97 S13       29.79F FOG
$$

ARZ022-023-033-042-044-011700-
CENTRAL ARKANSAS

CITY           SKY/WX    TMP DP  RH WIND       PRES   REMARKS
LITTLE ROCK    CLOUDY    57  53  86 S8        29.80F
N LITTLE ROCK  CLOUDY    55  55 100 SW8G17    29.80F
JACKSONVILLE   CLOUDY    56  55  99 SW9       29.78S
SEARCY         LGT RAIN  53  52  96 SW3       29.80S FOG
HOT SPRINGS    LGT RAIN  52  51  97 NW5       29.82R FOG
RUSSELLVILLE   LGT RAIN  45  44  97 NW3       29.80S FOG
CLINTON        CLOUDY    43  43 100 CALM      29.82S FOG
$$

ARZ036-011700-
EAST ARKANSAS

CITY           SKY/WX    TMP DP  RH WIND       PRES   REMARKS
WEST MEMPHIS   LGT RAIN  54  53  97 S21G31    29.80F
$$

ARZ050-053-066-070-073-011700-
SOUTHWEST ARKANSAS

CITY           SKY/WX    TMP DP  RH WIND       PRES   REMARKS
ARKADELPHIA    LGT RAIN  59  59 100 S12       29.80F FOG
CAMDEN         CLOUDY    57  55  94 MISG      29.84S FOG
TEXARKANA      LGT RAIN  58  58 100 SW12      29.82F FOG
EL DORADO      CLOUDY    58  57  97 S9        29.86F
DE QUEEN       CLOUDY    54  52  93 W6        29.82S
$$

ARZ056-057-069-011700-
SOUTHEAST ARKANSAS

CITY           SKY/WX    TMP DP  RH WIND       PRES   REMARKS
PINE BLUFF     CLOUDY    56  53  90 S15       29.83F
STUTTGART      CLOUDY    54  52  94 S18       29.82F
MONTICELLO     CLOUDY    57  54  89 S15G24    29.86S

$$




USA.gov is the U.S. government's official web portal to all federal, state and local government web resources and services.